This demonstration page uses our WeatherBlox Daily Observations layout. Learn more.

Left ArrowRight Arrow

Hourly Observations for September 8, 2015

Temp ( °F °C ) Dew Point ( °F °C ) Humidity (%) Winds ( mph kmh ) Pressure ( in mb ) Visibility ( mi km ) Precip ( " mm )
12:29 am 00:29 Cloudy with Thunderstorms 76 24.4 71 21.7 85 85 S 15 24 29.83 1010 10 16 0.00 0.03
12:52 am 00:52 Cloudy with Thunderstorms 73 22.8 68 20 84 84 SSW 13 20 29.83 1010 10 16 0.00 0.03
1:06 am 01:06 Cloudy with Thunderstorms 72 22 68 20 88 88 WSW 8 13 29.85 1011 10 16 0.00 0.00
1:23 am 01:23 Cloudy with Light Rain 73 22.8 67 19.4 81 81 S 16 26 29.85 1011 10 16 0.01 0.25
1:52 am 01:52 Cloudy 71 21.7 67 19.4 87 87 S 9 15 29.85 1011 10 16 0.01 0.25
2:07 am 02:07 Cloudy with Thunderstorms 71 21.7 67 19.4 87 87 SW 7 11 29.85 1011 10 16 0.00 0.00
2:48 am 02:48 Cloudy 72 22 66 19 83 83 S 8 13 29.88 1012 10 16 0.00 0.00
2:52 am 02:52 Cloudy 71 21.7 66 18.9 84 84 SSE 7 11 29.88 1012 10 16 0.00 0.03
2:58 am 02:58 Cloudy with Thunderstorms 72 22 64 18 78 78 SSE 3 6 29.88 1012 10 16 0.00 0.00
3:28 am 03:28 Cloudy with Strong Thunderstorms 70 21 66 19 88 88 S 6 9 29.88 1012 2 2 0.00 0.00
3:37 am 03:37 Cloudy with Thunderstorms 68 20 66 18.9 93 93 SSE 7 11 29.88 1012 3 5 0.24 6.10
3:52 am 03:52 Cloudy with Thunderstorms 68 20 67 19.4 96 96 ENE 7 11 29.87 1011 10 16 0.27 6.86
4:07 am 04:07 Cloudy with Heavy Rain 68 20 67 19.4 96 96 ESE 9 15 29.85 1011 4 6 0.14 3.56
4:52 am 04:52 Cloudy with Light Rain 68 20 66 18.9 93 93 S 3 6 29.84 1010 7 11 0.26 6.60
5:16 am 05:16 Cloudy with Rain 68 20 66 19 94 94 NNW 24 39 29.88 1012 2 2 0.00 0.00
5:23 am 05:23 Cloudy with Heavy Rain 67 19.4 66 18.9 97 97 NNW 24 39 29.88 1012 1 2 0.27 6.86
5:32 am 05:32 Cloudy with Strong Thunderstorms 66 19 64 18 94 94 NNW 18 30 29.88 1012 1 2 0.00 0.00
5:43 am 05:43 Cloudy with Strong Thunderstorms 65 18.3 64 17.8 97 97 NNW 15 24 29.91 1013 2 3 0.63 16.00
5:52 am 05:52 Cloudy with Thunderstorms 65 18.3 64 17.8 97 97 NNW 7 11 29.92 1013 8 13 0.66 16.76
6:12 am 06:12 Cloudy with Thunderstorms 66 19 64 18 94 94 N 7 11 29.88 1012 10 16 0.00 0.00
6:22 am 06:22 Cloudy with Light Rain 66 19 64 18 94 94 N 7 11 29.88 1012 10 16 0.00 0.00
6:52 am 06:52 Cloudy 67 19.4 63 17.2 87 87 ENE 15 24 29.91 1013 10 16 0.02 0.51
7:52 am 07:52 Mostly Cloudy 67 19.4 63 17.2 87 87 E 15 24 29.91 1013 10 16 0.00 0.00
8:52 am 08:52 Mostly Cloudy 67 19.4 61 16.1 81 81 S 7 11 29.91 1013 10 16 0.00 0.03
9:52 am 09:52 Mostly Cloudy 69 20.6 62 16.7 78 78 NNW 9 15 29.93 1014 10 16 0.00 0.00
10:52 am 10:52 Mostly Cloudy 72 22.2 63 17.2 73 73 NNW 13 20 29.94 1014 10 16 0.00 0.00
11:52 am 11:52 Mostly Cloudy 74 23.3 65 18.3 74 74 NW 9 15 29.92 1013 10 16 0.00 0.00
12:52 pm 12:52 Mostly Cloudy 75 23.9 64 17.8 69 69 NNW 9 15 29.93 1014 10 16 0.00 0.00
1:52 pm 13:52 Mostly Cloudy 78 25.6 64 17.8 62 62 NNW 8 13 29.92 1013 10 16 0.00 0.00
2:52 pm 14:52 Mostly Cloudy 79 26.1 65 18.3 62 62 NNW 9 15 29.91 1013 10 16 0.00 0.00
3:52 pm 15:52 Mostly Cloudy 79 26.1 64 17.8 60 60 N 10 17 29.90 1013 10 16 0.00 0.00
4:52 pm 16:52 Mostly Cloudy 78 25.6 65 18.3 64 64 N 12 19 29.90 1013 10 16 0.00 0.00
5:52 pm 17:52 Mostly Cloudy 78 25.6 67 19.4 69 69 Calm 29.93 1014 10 16 0.00 0.00
6:52 pm 18:52 Mostly Cloudy 77 25 67 19.4 71 71 NNE 3 6 29.93 1013 10 16 0.00 0.00
7:52 pm 19:52 Mostly Cloudy 73 22.8 67 19.4 81 81 N 6 9 29.93 1014 10 16 0.00 0.00
8:52 pm 20:52 Mostly Cloudy 71 21.7 67 19.4 87 87 N 6 9 29.95 1014 10 16 0.00 0.00
9:52 pm 21:52 Partly Cloudy 70 21.1 66 18.9 87 87 N 7 11 29.98 1015 10 16 0.00 0.00
10:52 pm 22:52 Partly Cloudy 68 20 66 18.9 93 93 N 5 7 29.98 1015 10 16 0.00 0.00
11:52 pm 23:52 Mostly Clear 66 18.9 65 18.3 96 96 N 5 7 29.98 1015 10 16 0.00 0.00

Powered by AerisWeather